Location: Waco, TX
(31.5480°N, 97.1670°W)
Time: 03:09:21
(UTC-05:00)

ISS - Pass Details

Date: 14 September 2017
Orbit: 401 x 407 km, 51.6° (Epoch: 22 September)

Event Time Altitude Azimuth Distance (km) Brightness Sun altitude
Rises 23:31:55 0° 196° (SSW) 2,303 - -46.4°
Reaches altitude 10° 23:34:17 10° 180° (S) 1,450 - -46.8°
Maximum altitude 23:36:50 21° 128° (SE) 954 - -47.1°
Drops below altitude 10° 23:39:25 10° 76° (ENE) 1,460 - -47.5°
Sets 23:41:48 0° 60° (ENE) 2,324 - -47.8°
